ZH EPBY-EPBY

Flight info

Callsign ZH
Flight time 0h 2m
Altitude 6500
Route EPBY RWY 08L TRAFFIC PATERNS/ EPBY TMA THERMAL FLIGHT
Aircraft GLID/L-GVYS/S

Departure

Time 2026-05-08 14:36
Airport Ignacy Jan Paderewski Bydgoszcz Airport (EPBY)

Arrival

Time 2026-05-08 14:38
Airport Ignacy Jan Paderewski Bydgoszcz Airport (EPBY)
Time Latitude Longitude Altitude Speed Heading
2026-05-08 14:35 53.10613 17.95336 216 ft 0 kts 83°
2026-05-08 14:36 53.10624 17.95525 343 ft 44 kts 81°
2026-05-08 14:36 53.10632 17.96080 891 ft 53 kts 82°
2026-05-08 14:36 53.10667 17.96782 1314 ft 67 kts 77°
2026-05-08 14:36 53.10732 17.97500 1453 ft 61 kts 60°
2026-05-08 14:37 53.10953 17.97348 1488 ft 55 kts 268°
2026-05-08 14:37 53.10891 17.96743 1469 ft 52 kts 317°
2026-05-08 14:37 53.11086 17.97046 1429 ft 58 kts 107°
2026-05-08 14:37 53.10783 17.97445 1378 ft 56 kts 90°
2026-05-08 14:38 53.10771 17.98084 1387 ft 51 kts 71°
2026-05-08 14:38 53.10894 17.97857 1397 ft 60 kts 235°
2026-05-08 14:38 53.10677 17.98080 1387 ft 48 kts 39°
2026-05-08 14:38 53.10907 17.97745 1416 ft 52 kts 304°
2026-05-08 14:39 53.11044 17.97193 1448 ft 51 kts 298°
2026-05-08 14:39 53.11174 17.96634 1430 ft 53 kts 298°
2026-05-08 14:39 53.11138 17.96028 1425 ft 54 kts 262°
2026-05-08 14:39 53.10969 17.95478 1406 ft 62 kts 209°
2026-05-08 14:40 53.10764 17.95819 1433 ft 50 kts 51°
2026-05-08 14:40 53.11038 17.95865 1406 ft 52 kts 318°
2026-05-08 14:40 53.10943 17.95383 1357 ft 68 kts 193°
2026-05-08 14:40 53.10837 17.95731 1381 ft 51 kts 351°
2026-05-08 14:41 53.10631 17.95429 1329 ft 68 kts 138°
2026-05-08 14:41 53.10679 17.95449 1343 ft 69 kts 222°
2026-05-08 14:41 53.10601 17.95784 1367 ft 50 kts
2026-05-08 14:41 53.10601 17.95347 1467 ft 62 kts 193°
2026-05-08 14:42 53.10537 17.95678 1434 ft 49 kts 359°
2026-05-08 14:42 53.10511 17.95319 1451 ft 67 kts 168°
2026-05-08 14:42 53.10460 17.95779 1499 ft 45 kts 15°
2026-05-08 14:42 53.10486 17.95368 1522 ft 65 kts 191°
2026-05-08 14:43 53.10485 17.95647 1476 ft 55 kts 327°
2026-05-08 14:43 53.10256 17.95355 1479 ft 62 kts 113°
2026-05-08 14:43 53.10380 17.95307 1523 ft 58 kts 253°
2026-05-08 14:43 53.10138 17.95193 1561 ft 59 kts 142°
2026-05-08 14:44 53.10175 17.95660 1542 ft 47 kts 21°
2026-05-08 14:44 53.10538 17.95878 1620 ft 41 kts 13°
2026-05-08 14:44 53.10809 17.95976 1716 ft 40 kts 11°
2026-05-08 14:44 53.11002 17.96027 1695 ft 43 kts
2026-05-08 14:45 53.11402 17.96217 1662 ft 45 kts 30°
2026-05-08 14:45 53.11573 17.96415 1656 ft 46 kts 31°
2026-05-08 14:45 53.11868 17.96722 1663 ft 49 kts 26°
2026-05-08 14:45 53.12138 17.97043 1728 ft 47 kts 32°
2026-05-08 14:46 53.12413 17.97362 1763 ft 48 kts 30°
2026-05-08 14:46 53.12672 17.97651 1820 ft 44 kts 31°
2026-05-08 14:46 53.12930 17.97941 1829 ft 45 kts 32°
2026-05-08 14:46 53.13195 17.98238 1835 ft 46 kts 31°
2026-05-08 14:47 53.13473 17.98527 1839 ft 48 kts 30°
2026-05-08 14:47 53.13650 17.98950 1781 ft 62 kts 112°
2026-05-08 14:47 53.13234 17.98868 1753 ft 67 kts 238°
2026-05-08 14:47 53.13425 17.98542 1744 ft 56 kts 30°
2026-05-08 14:48 53.13741 17.98883 1745 ft 55 kts 29°
2026-05-08 14:48 53.14061 17.99205 1838 ft 49 kts 29°
2026-05-08 14:48 53.14209 17.98985 1827 ft 63 kts 227°
2026-05-08 14:48 53.13968 17.99245 1842 ft 49 kts 53°
2026-05-08 14:49 53.14144 17.98988 1854 ft 58 kts 249°
2026-05-08 14:49 53.13823 17.99001 1882 ft 49 kts 84°
2026-05-08 14:49 53.14075 17.99255 1898 ft 43 kts 16°
2026-05-08 14:49 53.14358 17.99432 1935 ft 45 kts 25°
2026-05-08 14:50 53.14650 17.99640 1896 ft 47 kts 20°
2026-05-08 14:50 53.14944 17.99832 1881 ft 46 kts 28°
2026-05-08 14:50 53.15239 18.00059 1876 ft 47 kts 23°
2026-05-08 14:50 53.15092 18.00461 1940 ft 64 kts 189°
2026-05-08 14:51 53.15024 17.99934 2001 ft 53 kts 330°
2026-05-08 14:51 53.15310 18.00165 1967 ft 56 kts 69°
2026-05-08 14:51 53.15012 18.00252 2032 ft 64 kts 253°
2026-05-08 14:51 53.15233 17.99774 1977 ft 49 kts 346°
2026-05-08 14:52 53.15396 18.00096 1908 ft 65 kts 132°
2026-05-08 14:52 53.15411 17.99317 1880 ft 58 kts 319°
2026-05-08 14:52 53.15696 17.98833 1882 ft 61 kts 322°
2026-05-08 14:53 53.15798 17.98292 2016 ft 65 kts 215°
2026-05-08 14:53 53.15628 17.98620 2100 ft 49 kts 29°
2026-05-08 14:53 53.15699 17.98241 2184 ft 66 kts 209°
2026-05-08 14:53 53.15562 17.98593 2172 ft 51 kts 24°
2026-05-08 14:54 53.15656 17.98147 2260 ft 66 kts 220°
2026-05-08 14:54 53.15391 17.98448 2313 ft 50 kts 65°
2026-05-08 14:54 53.15671 17.98491 2300 ft 60 kts 296°
2026-05-08 14:54 53.15369 17.98223 2359 ft 64 kts 131°
2026-05-08 14:55 53.15492 17.98692 2333 ft 55 kts 13°
2026-05-08 14:55 53.15567 17.98265 2415 ft 65 kts 205°
2026-05-08 14:55 53.15384 17.98645 2386 ft 51 kts 45°
2026-05-08 14:55 53.15588 17.98391 2456 ft 61 kts 254°
2026-05-08 14:56 53.15262 17.98412 2494 ft 55 kts 93°
2026-05-08 14:56 53.15543 17.98476 2440 ft 56 kts 334°
2026-05-08 14:56 53.15880 17.98177 2549 ft 52 kts 335°
2026-05-08 14:56 53.16178 17.97882 2594 ft 50 kts 334°
2026-05-08 14:57 53.16486 17.97552 2553 ft 54 kts 335°
2026-05-08 14:57 53.16795 17.97263 2555 ft 50 kts 344°
2026-05-08 14:57 53.17091 17.96953 2525 ft 53 kts 326°
2026-05-08 14:57 53.17312 17.97049 2583 ft 57 kts 98°
2026-05-08 14:58 53.16958 17.96992 2527 ft 69 kts 235°
2026-05-08 14:58 53.17059 17.96520 2596 ft 54 kts 26°
2026-05-08 14:58 53.16878 17.96829 2644 ft 68 kts 222°
2026-05-08 14:58 53.17009 17.96693 2687 ft 59 kts 96°
2026-05-08 14:59 53.16757 17.96506 2721 ft 60 kts 303°
2026-05-08 14:59 53.16647 17.96436 2831 ft 62 kts 297°
2026-05-08 14:59 53.16861 17.96570 2917 ft 55 kts 104°
2026-05-08 15:00 53.16518 17.96509 2978 ft 64 kts 258°
2026-05-08 15:00 53.16733 17.96251 3025 ft 51 kts 49°
2026-05-08 15:00 53.16474 17.96396 3063 ft 66 kts 244°
2026-05-08 15:00 53.16659 17.96187 3065 ft 55 kts 72°
2026-05-08 15:01 53.16372 17.96122 3096 ft 62 kts 272°
2026-05-08 15:01 53.16608 17.95959 3158 ft 49 kts 58°
2026-05-08 15:01 53.16348 17.96228 3193 ft 64 kts 212°
2026-05-08 15:01 53.16340 17.95678 3239 ft 49 kts 345°
2026-05-08 15:02 53.16442 17.96040 3277 ft 59 kts 128°
2026-05-08 15:02 53.16124 17.95779 3300 ft 59 kts 276°
2026-05-08 15:02 53.16358 17.95681 3249 ft 50 kts 69°
2026-05-08 15:02 53.16064 17.95685 3251 ft 61 kts 263°
2026-05-08 15:03 53.16273 17.95412 3258 ft 47 kts 44°
2026-05-08 15:03 53.16103 17.95837 3247 ft 61 kts 173°
2026-05-08 15:03 53.15876 17.95376 3244 ft 52 kts 305°
2026-05-08 15:03 53.16188 17.95286 3159 ft 51 kts 14°
2026-05-08 15:04 53.16533 17.95412 3127 ft 51 kts 14°
2026-05-08 15:04 53.16875 17.95557 3166 ft 48 kts 18°
2026-05-08 15:04 53.17200 17.95737 3159 ft 50 kts 21°
2026-05-08 15:04 53.17507 17.95939 3207 ft 48 kts 23°
2026-05-08 15:05 53.17796 17.96145 3231 ft 46 kts 25°
2026-05-08 15:05 53.18084 17.96380 3208 ft 46 kts 25°
2026-05-08 15:05 53.18376 17.96659 3251 ft 48 kts 31°
2026-05-08 15:05 53.18658 17.96944 3296 ft 47 kts 32°
2026-05-08 15:06 53.18937 17.97230 3298 ft 47 kts 32°
2026-05-08 15:06 53.19208 17.97545 3284 ft 47 kts 34°
2026-05-08 15:06 53.19496 17.97895 3215 ft 54 kts 35°
2026-05-08 15:06 53.19797 17.98281 3193 ft 55 kts 37°
2026-05-08 15:07 53.20088 17.98690 3187 ft 52 kts 39°
2026-05-08 15:07 53.20244 17.99216 3162 ft 60 kts 98°
2026-05-08 15:07 53.19891 17.99271 3092 ft 73 kts 253°
2026-05-08 15:07 53.20144 17.99087 3046 ft 59 kts 57°
2026-05-08 15:08 53.20265 17.99691 3078 ft 49 kts 63°
2026-05-08 15:08 53.20350 18.00048 3059 ft 49 kts 61°
2026-05-08 15:08 53.20510 18.00734 3037 ft 46 kts 62°
2026-05-08 15:08 53.20639 18.01267 3023 ft 50 kts 55°
2026-05-08 15:09 53.20769 18.01794 2997 ft 49 kts 63°
2026-05-08 15:09 53.20853 18.02359 2949 ft 53 kts 71°
2026-05-08 15:09 53.20923 18.02945 2968 ft 51 kts 72°
2026-05-08 15:09 53.21085 18.03356 2941 ft 51 kts 346°
2026-05-08 15:10 53.21002 18.02866 2888 ft 68 kts 178°
2026-05-08 15:10 53.20738 18.03320 2909 ft 53 kts 105°
2026-05-08 15:10 53.20608 18.03888 2906 ft 50 kts 96°
2026-05-08 15:10 53.20646 18.04423 2875 ft 49 kts 62°
2026-05-08 15:11 53.20769 18.04957 2860 ft 49 kts 63°
2026-05-08 15:11 53.20923 18.05458 2845 ft 47 kts 38°
2026-05-08 15:11 53.21168 18.05802 2834 ft 53 kts 68°
2026-05-08 15:11 53.20838 18.06072 2831 ft 66 kts 197°
2026-05-08 15:12 53.20435 18.05777 2839 ft 64 kts 206°
2026-05-08 15:12 53.20046 18.05441 2848 ft 61 kts 208°
2026-05-08 15:12 53.19666 18.05098 2824 ft 62 kts 208°
2026-05-08 15:12 53.19266 18.04730 2775 ft 65 kts 211°
2026-05-08 15:13 53.18866 18.04342 2751 ft 68 kts 211°
2026-05-08 15:13 53.18452 18.04039 2764 ft 64 kts 191°
2026-05-08 15:13 53.18023 18.03854 2779 ft 63 kts 191°
2026-05-08 15:13 53.17584 18.03728 2763 ft 65 kts 186°
2026-05-08 15:14 53.17130 18.03616 2781 ft 67 kts 188°
2026-05-08 15:14 53.16677 18.03460 2805 ft 67 kts 193°
2026-05-08 15:14 53.16228 18.03276 2806 ft 67 kts 193°
2026-05-08 15:14 53.15797 18.03258 2815 ft 57 kts 123°
2026-05-08 15:15 53.15927 18.03606 2787 ft 51 kts 334°
2026-05-08 15:15 53.15904 18.03023 2774 ft 60 kts 259°
2026-05-08 15:15 53.15833 18.02330 2754 ft 61 kts 266°
2026-05-08 15:15 53.15735 18.01631 2733 ft 63 kts 262°
2026-05-08 15:16 53.15608 18.00921 2699 ft 63 kts 258°
2026-05-08 15:16 53.15471 18.00261 2778 ft 55 kts 258°
2026-05-08 15:16 53.15351 17.99635 2794 ft 58 kts 259°
2026-05-08 15:16 53.15221 17.98999 2786 ft 58 kts 257°
2026-05-08 15:17 53.15073 17.98323 2754 ft 63 kts 255°
2026-05-08 15:17 53.14941 17.97629 2783 ft 61 kts 274°
2026-05-08 15:17 53.14954 17.96938 2794 ft 58 kts 287°
2026-05-08 15:17 53.15035 17.96298 2827 ft 56 kts 291°
2026-05-08 15:18 53.15116 17.95639 2794 ft 62 kts 288°
2026-05-08 15:18 53.15189 17.94909 2770 ft 64 kts 284°
2026-05-08 15:18 53.15246 17.94174 2762 ft 64 kts 283°
2026-05-08 15:18 53.15290 17.93427 2762 ft 67 kts 279°
2026-05-08 15:19 53.15317 17.92606 2738 ft 71 kts 280°
2026-05-08 15:19 53.15345 17.91781 2728 ft 71 kts 278°
2026-05-08 15:19 53.15281 17.91044 2729 ft 63 kts 285°
2026-05-08 15:19 53.15342 17.90325 2714 ft 65 kts 284°
2026-05-08 15:20 53.15404 17.89605 2714 ft 62 kts 290°
2026-05-08 15:20 53.15517 17.88905 2737 ft 61 kts 292°
2026-05-08 15:20 53.15417 17.88311 2698 ft 70 kts 183°
2026-05-08 15:20 53.15104 17.88688 2641 ft 58 kts 77°
2026-05-08 15:21 53.15321 17.88629 2581 ft 67 kts 275°
2026-05-08 15:21 53.15007 17.88286 2607 ft 59 kts 157°
2026-05-08 15:21 53.14739 17.88738 2589 ft 61 kts 154°
2026-05-08 15:21 53.14364 17.89020 2597 ft 59 kts 147°
2026-05-08 15:22 53.13999 17.89331 2608 ft 59 kts 146°
2026-05-08 15:22 53.13640 17.89650 2635 ft 58 kts 144°
2026-05-08 15:22 53.13284 17.90000 2623 ft 61 kts 141°
2026-05-08 15:22 53.12933 17.90373 2658 ft 59 kts 139°
2026-05-08 15:23 53.12590 17.90767 2613 ft 61 kts 138°
2026-05-08 15:23 53.12242 17.91169 2604 ft 61 kts 139°
2026-05-08 15:23 53.11882 17.91558 2595 ft 62 kts 140°
2026-05-08 15:23 53.11608 17.92035 2620 ft 52 kts 72°
2026-05-08 15:24 53.11829 17.91930 2534 ft 61 kts 272°
2026-05-08 15:24 53.11479 17.91696 2530 ft 60 kts 148°
2026-05-08 15:24 53.11241 17.92228 2539 ft 55 kts 108°
2026-05-08 15:24 53.11079 17.92789 2528 ft 54 kts 106°
2026-05-08 15:25 53.10922 17.93366 2503 ft 56 kts 105°
2026-05-08 15:25 53.10777 17.93937 2507 ft 54 kts 102°
2026-05-08 15:25 53.10666 17.94522 2498 ft 53 kts 89°
2026-05-08 15:25 53.10663 17.95118 2506 ft 50 kts 66°
2026-05-08 15:26 53.10917 17.95413 2574 ft 37 kts 17°
2026-05-08 15:26 53.11093 17.95802 2295 ft 38 kts 53°
2026-05-08 15:26 53.11233 17.96203 2035 ft 31 kts 44°
2026-05-08 15:26 53.11251 17.96630 1694 ft 68 kts 176°
2026-05-08 15:27 53.10992 17.96671 1299 ft 45 kts 247°
2026-05-08 15:27 53.10751 17.96113 1492 ft 37 kts 205°
2026-05-08 15:27 53.10339 17.95749 1244 ft 64 kts 239°
2026-05-08 15:27 53.10528 17.95486 1095 ft 65 kts 63°
2026-05-08 15:28 53.10639 17.96186 1129 ft 60 kts 73°
2026-05-08 15:28 53.10707 17.96823 1211 ft 54 kts 73°
2026-05-08 15:28 53.10910 17.97213 1262 ft 46 kts
2026-05-08 15:28 53.11227 17.97104 1302 ft 48 kts 351°
2026-05-08 15:29 53.11505 17.96819 1305 ft 58 kts 297°
2026-05-08 15:29 53.11440 17.96129 1357 ft 59 kts 267°
2026-05-08 15:29 53.11380 17.95494 1423 ft 53 kts 272°
2026-05-08 15:29 53.11335 17.94865 1315 ft 59 kts 270°
2026-05-08 15:30 53.11279 17.94119 1020 ft 67 kts 260°
2026-05-08 15:30 53.10957 17.93654 973 ft 69 kts 182°
2026-05-08 15:30 53.10577 17.93898 934 ft 61 kts 86°
2026-05-08 15:30 53.10612 17.94613 666 ft 53 kts 78°
2026-05-08 15:31 53.10650 17.95193 474 ft 51 kts 80°
2026-05-08 15:31 53.10640 17.95785 333 ft 50 kts 86°
2026-05-08 15:31 53.10618 17.96363 243 ft 50 kts 86°
2026-05-08 15:31 53.10608 17.96803 216 ft 12 kts 94°
2026-05-08 15:32 53.10602 17.96868 216 ft 0 kts 100°